Location: Newark
(43.6583°N, 1.6617°E)
Time: 08:45:56
(UTC+00:00)

Vanguard 1 Rocket - Pass Details

Date: 25 August 2019
Orbit: 650 x 4226 km, 34.3° (Epoch: 13 October)

Event Time Altitude Azimuth Distance (km) Brightness Sun altitude
Rises 06:29:27 0° 261° (W) 3,514 9.8 13.6°
Reaches altitude 10° 06:32:11 10° 245° (WSW) 2,868 9.5 14.0°
Maximum altitude 06:37:23 22° 197° (SSW) 2,690 9.7 15.0°
Drops below altitude 10° 06:45:10 10° 153° (SSE) 4,500 11.4 16.4°
Sets 06:51:04 0° 141° (SE) 6,220 12.3 17.5°
